FFL1031 LOWI-LFRM

Flight info

Callsign FFL1031
Flight time N/A
Altitude 32000
Route KPT L856 TRA Z69 OLBEN DCT PEPAX UT182 KEPER
Aircraft E50P/L-SBDFGRWY/LB2

Departure

Time N/A
Airport Innsbruck Airport (LOWI)

Arrival

Time 2026-05-07 22:48
Airport Le Mans-Arnage Airport (LFRM)
Time Latitude Longitude Altitude Speed Heading
2026-05-07 22:39 47.76520 0.55730 7136 ft 263 kts 272°
2026-05-07 22:39 47.76570 0.53012 6783 ft 262 kts 272°
2026-05-07 22:40 47.76618 0.50298 6432 ft 262 kts 272°
2026-05-07 22:40 47.76662 0.47633 6081 ft 261 kts 272°
2026-05-07 22:40 47.76708 0.44939 5736 ft 260 kts 272°
2026-05-07 22:40 47.76752 0.42255 5393 ft 259 kts 272°
2026-05-07 22:41 47.76797 0.39587 5055 ft 258 kts 272°
2026-05-07 22:41 47.76841 0.36927 4712 ft 257 kts 271°
2026-05-07 22:41 47.76881 0.34280 4369 ft 256 kts 271°
2026-05-07 22:41 47.76925 0.31643 4032 ft 255 kts 271°
2026-05-07 22:42 47.76964 0.29016 3693 ft 255 kts 271°
2026-05-07 22:42 47.76992 0.27271 3476 ft 255 kts 271°
2026-05-07 22:42 47.77035 0.24647 3139 ft 254 kts 272°
2026-05-07 22:42 47.77404 0.22094 2847 ft 251 kts 291°
2026-05-07 22:43 47.78032 0.19750 2605 ft 235 kts 290°
2026-05-07 22:43 47.78619 0.17566 2404 ft 220 kts 300°
2026-05-07 22:43 47.79564 0.15866 2203 ft 209 kts 318°
2026-05-07 22:43 47.80741 0.14691 2029 ft 198 kts 336°
2026-05-07 22:44 47.82001 0.14103 2023 ft 182 kts 352°
2026-05-07 22:44 47.83219 0.14034 2019 ft 170 kts
2026-05-07 22:44 47.84334 0.14376 2017 ft 159 kts 20°
2026-05-07 22:44 47.85335 0.14954 2017 ft 151 kts 21°
2026-05-07 22:45 47.86317 0.15455 1875 ft 153 kts 21°
2026-05-07 22:45 47.87330 0.16025 1680 ft 158 kts 22°
2026-05-07 22:45 47.88355 0.16585 1459 ft 152 kts 21°
2026-05-07 22:45 47.89254 0.17079 1259 ft 123 kts 21°
2026-05-07 22:46 47.89993 0.17480 1089 ft 106 kts 21°
2026-05-07 22:46 47.90664 0.17853 943 ft 100 kts 21°
2026-05-07 22:46 47.91309 0.18208 778 ft 98 kts 23°
2026-05-07 22:46 47.91949 0.18546 631 ft 98 kts 19°
2026-05-07 22:47 47.92579 0.18905 532 ft 97 kts 22°
2026-05-07 22:47 47.93213 0.19244 428 ft 97 kts 22°
2026-05-07 22:47 47.93846 0.19599 290 ft 97 kts 23°
2026-05-07 22:47 47.94453 0.19941 176 ft 87 kts 22°
2026-05-07 22:48 47.94896 0.20192 181 ft 30 kts 19°
2026-05-07 22:48 47.94976 0.20195 182 ft 10 kts 296°
2026-05-07 22:48 47.95010 0.20074 183 ft 15 kts 293°
2026-05-07 22:48 47.95017 0.20017 182 ft 5 kts 217°
2026-05-07 22:49 47.94937 0.19971 181 ft 19 kts 202°
2026-05-07 22:49 47.94787 0.19891 177 ft 22 kts 199°
2026-05-07 22:49 47.94752 0.19825 176 ft 8 kts 282°
2026-05-07 22:49 47.94729 0.19800 176 ft 8 kts 195°
2026-05-07 22:50 47.94700 0.19753 175 ft 6 kts 303°
2026-05-07 22:50 47.94732 0.19748 175 ft 5 kts 22°
2026-05-07 22:50 47.94742 0.19754 176 ft 0 kts 22°